Retour au catalogue

QIANFAN-114

ActifCommunicationsPO
NORAD 68641·PAYLOAD·🇨🇳 China

Lancé Apr 7, 2026 depuis Wenchang Space Launch Site

Loading…

Prochains Passages (prochaines 24 heures)

TLE

FraisSource: Space-Track

Époque: Sep 14, 2026, 14:56 UTC

1 68641U 26075F   26257.62257341  .00000072  00000-0  92250-4 0  9998
2 68641  88.9872 311.8902 0002254  97.9189 262.2218 13.51027505 21879

Suivez QIANFAN-114 en temps réel avec AllMySat

Download on the App Store